• In Lithuania
  • List of Countries
  • For 7 days
  • Water Temperature
  • Satellite Maps
  • Weather Map
  • Weather Widgets
  • user-avatar
    Login

    Hourly Weather Nizhnee Sazonovo

    Today, 23 June, Saturday

    Time Temperature Precipitation Wind Pressure Humidity
    00:00 +20°C° 0 mm 2 mps 741 mmHg 88%
    01:00 +20°C° 0 mm 2 mps 741 mmHg 89%
    02:00 +19°C° 0 mm 2 mps 741 mmHg 89%
    03:00 +20°C° 0 mm 1 mps 740 mmHg 89%
    04:00 +21°C° 0 mm 1 mps 741 mmHg 88%
    05:00 +21°C° 0 mm 1 mps 741 mmHg 87%
    06:00 +22°C° 0 mm 1 mps 741 mmHg 86%
    07:00 +23°C° 0 mm 2 mps 741 mmHg 81%
    08:00 +25°C° 0 mm 3 mps 741 mmHg 77%
    09:00 +26°C° 0 mm 3 mps 741 mmHg 73%
    10:00 +27°C° 0 mm 4 mps 740 mmHg 68%
    11:00 +28°C° 0 mm 5 mps 740 mmHg 63%
    12:00 +29°C° 0 mm 5 mps 740 mmHg 58%
    13:00 +30°C° 0 mm 5 mps 740 mmHg 57%
    14:00 +30°C° 0 mm 5 mps 740 mmHg 56%
    15:00 +30°C° 0 mm 6 mps 739 mmHg 55%
    16:00 +30°C° 0 mm 5 mps 739 mmHg 59%
    17:00 +30°C° 0 mm 5 mps 739 mmHg 64%
    18:00 +29°C° 0 mm 4 mps 739 mmHg 69%
    19:00 +28°C° 0 mm 4 mps 739 mmHg 70%
    20:00 +26°C° 0 mm 5 mps 738 mmHg 72%
    21:00 +25°C° 0 mm 5 mps 738 mmHg 73%
    22:00 +23°C° 0 mm 5 mps 738 mmHg 71%
    23:00 +23°C° 0 mm 6 mps 738 mmHg 69%

    Tomorrow, 24 June, Sunday

    Time Temperature Precipitation Wind Pressure Humidity
    00:00 +23°C° 0 mm 6 mps 738 mmHg 67%
    01:00 +22°C° 0 mm 5 mps 738 mmHg 68%
    02:00 +22°C° 0 mm 5 mps 738 mmHg 70%
    03:00 +21°C° 0 mm 4 mps 738 mmHg 71%
    04:00 +21°C° 0 mm 4 mps 738 mmHg 74%
    05:00 +21°C° 0 mm 4 mps 738 mmHg 77%
    06:00 +20°C° 0 mm 4 mps 738 mmHg 81%
    07:00 +21°C° 0.1 mm 4 mps 738 mmHg 80%
    08:00 +22°C° 0.1 mm 4 mps 739 mmHg 79%
    09:00 +22°C° 0.1 mm 4 mps 739 mmHg 78%
    10:00 +22°C° 0.6 mm 3 mps 739 mmHg 79%
    11:00 +22°C° 0.6 mm 3 mps 739 mmHg 80%
    12:00 +22°C° 0.6 mm 3 mps 739 mmHg 80%
    13:00 +21°C° 1.5 mm 2 mps 740 mmHg 83%
    14:00 +20°C° 1.5 mm 2 mps 740 mmHg 86%
    15:00 +20°C° 1.5 mm 2 mps 740 mmHg 89%
    16:00 +19°C° 0.7 mm 2 mps 740 mmHg 91%
    17:00 +18°C° 0.7 mm 3 mps 740 mmHg 92%
    18:00 +17°C° 0.7 mm 3 mps 741 mmHg 93%
    19:00 +16°C° 0 mm 3 mps 741 mmHg 94%
    20:00 +14°C° 0 mm 3 mps 741 mmHg 94%
    21:00 +14°C° 0 mm 3 mps 741 mmHg 94%
    22:00 +14°C° 0 mm 2 mps 742 mmHg 94%
    23:00 +14°C° 0 mm 2 mps 742 mmHg 94%

    Day after tomorrow, 25 June, Monday

    Time Temperature Precipitation Wind Pressure Humidity
    00:00 +13°C° 0 mm 2 mps 743 mmHg 94%
    01:00 +13°C° 0 mm 2 mps 743 mmHg 94%
    02:00 +13°C° 0 mm 2 mps 743 mmHg 94%
    03:00 +12°C° 0 mm 2 mps 744 mmHg 94%
    04:00 +13°C° 0 mm 2 mps 744 mmHg 93%
    05:00 +13°C° 0 mm 2 mps 744 mmHg 92%
    06:00 +14°C° 0 mm 2 mps 744 mmHg 91%
    07:00 +15°C° 0 mm 2 mps 745 mmHg 86%
    08:00 +17°C° 0 mm 2 mps 745 mmHg 80%
    09:00 +19°C° 0 mm 2 mps 745 mmHg 74%
    10:00 +19°C° 0 mm 2 mps 745 mmHg 69%
    11:00 +20°C° 0 mm 2 mps 746 mmHg 65%
    12:00 +21°C° 0 mm 2 mps 746 mmHg 60%
    13:00 +23°C° 0 mm 2 mps 746 mmHg 59%
    14:00 +23°C° 0 mm 2 mps 746 mmHg 59%
    15:00 +23°C° 0 mm 2 mps 746 mmHg 58%
    16:00 +23°C° 0 mm 2 mps 746 mmHg 59%
    17:00 +23°C° 0 mm 2 mps 746 mmHg 61%
    18:00 +23°C° 0 mm 2 mps 746 mmHg 63%
    19:00 +22°C° 0 mm 1 mps 746 mmHg 68%
    20:00 +20°C° 0 mm 1 mps 747 mmHg 73%
    21:00 +18°C° 0 mm 1 mps 747 mmHg 77%
    22:00 +18°C° 0 mm 1 mps 747 mmHg 80%
    23:00 +16°C° 0 mm 1 mps 747 mmHg 83%

    26 June, Tuesday

    Time Temperature Precipitation Wind Pressure Humidity
    00:00 +15°C° 0 mm 1 mps 747 mmHg 86%
    01:00 +15°C° 0 mm 1 mps 748 mmHg 87%
    02:00 +14°C° 0 mm 1 mps 748 mmHg 88%
    03:00 +14°C° 0 mm 1 mps 748 mmHg 89%
    04:00 +14°C° 0 mm 1 mps 748 mmHg 88%
    05:00 +15°C° 0 mm 1 mps 748 mmHg 87%
    06:00 +16°C° 0 mm 1 mps 748 mmHg 86%
    07:00 +17°C° 0 mm 2 mps 748 mmHg 81%
    08:00 +19°C° 0 mm 2 mps 749 mmHg 75%
    09:00 +20°C° 0 mm 2 mps 749 mmHg 70%
    10:00 +21°C° 0 mm 2 mps 749 mmHg 66%
    11:00 +23°C° 0 mm 2 mps 749 mmHg 62%
    12:00 +24°C° 0 mm 2 mps 749 mmHg 57%
    13:00 +25°C° 0 mm 2 mps 749 mmHg 56%
    14:00 +25°C° 0 mm 2 mps 748 mmHg 55%
    15:00 +26°C° 0 mm 2 mps 748 mmHg 54%
    16:00 +26°C° 0 mm 2 mps 748 mmHg 58%
    17:00 +25°C° 0 mm 2 mps 748 mmHg 61%
    18:00 +25°C° 0 mm 2 mps 748 mmHg 65%
    19:00 +24°C° 0 mm 2 mps 748 mmHg 69%
    20:00 +21°C° 0 mm 2 mps 748 mmHg 72%
    21:00 +19°C° 0 mm 2 mps 748 mmHg 76%
    22:00 +18°C° 0 mm 2 mps 748 mmHg 77%
    23:00 +18°C° 0 mm 2 mps 748 mmHg 78%

    27 June, Wednesday

    Time Temperature Precipitation Wind Pressure Humidity
    00:00 +17°C° 0 mm 2 mps 748 mmHg 79%
    01:00 +17°C° 0 mm 2 mps 748 mmHg 79%
    02:00 +16°C° 0 mm 2 mps 748 mmHg 79%
    03:00 +16°C° 0 mm 3 mps 748 mmHg 79%
    04:00 +16°C° 0 mm 3 mps 748 mmHg 80%
    05:00 +17°C° 0 mm 3 mps 748 mmHg 81%
    06:00 +17°C° 0 mm 3 mps 748 mmHg 82%
    07:00 +18°C° 0 mm 3 mps 748 mmHg 78%
    08:00 +20°C° 0 mm 3 mps 748 mmHg 75%
    09:00 +22°C° 0 mm 3 mps 748 mmHg 71%
    10:00 +23°C° 0 mm 4 mps 748 mmHg 67%
    11:00 +25°C° 0 mm 5 mps 748 mmHg 63%
    12:00 +26°C° 0 mm 5 mps 748 mmHg 59%
    13:00 +26°C° 0 mm 5 mps 748 mmHg 61%
    14:00 +26°C° 0 mm 4 mps 748 mmHg 62%
    15:00 +26°C° 0 mm 4 mps 747 mmHg 64%
    16:00 +25°C° 0.4 mm 4 mps 747 mmHg 69%
    17:00 +23°C° 0.4 mm 4 mps 747 mmHg 73%
    18:00 +22°C° 0.4 mm 4 mps 747 mmHg 78%
    19:00 +21°C° 0.1 mm 4 mps 747 mmHg 78%
    20:00 +21°C° 0.1 mm 4 mps 747 mmHg 79%
    21:00 +20°C° 0.1 mm 4 mps 747 mmHg 80%
    22:00 +20°C° 0.2 mm 4 mps 747 mmHg 80%
    23:00 +19°C° 0.2 mm 4 mps 747 mmHg 80%

    28 June, Thursday

    Time Temperature Precipitation Wind Pressure Humidity
    00:00 +19°C° 0.2 mm 4 mps 747 mmHg 79%
    01:00 +19°C° 1.1 mm 4 mps 747 mmHg 82%
    02:00 +18°C° 1.1 mm 4 mps 747 mmHg 84%
    03:00 +18°C° 1.1 mm 4 mps 747 mmHg 87%
    04:00 +18°C° 0.8 mm 4 mps 747 mmHg 88%
    05:00 +18°C° 0.8 mm 4 mps 747 mmHg 88%
    06:00 +18°C° 0.8 mm 4 mps 747 mmHg 89%
    07:00 +19°C° 0.2 mm 4 mps 747 mmHg 88%
    08:00 +20°C° 0.2 mm 5 mps 747 mmHg 86%
    09:00 +20°C° 0.2 mm 5 mps 747 mmHg 85%
    10:00 +21°C° 0 mm 5 mps 747 mmHg 81%
    11:00 +23°C° 0 mm 6 mps 747 mmHg 78%
    12:00 +24°C° 0 mm 6 mps 747 mmHg 75%
    13:00 +24°C° 0 mm 6 mps 747 mmHg 73%
    14:00 +26°C° 0 mm 6 mps 747 mmHg 71%
    15:00 +27°C° 0 mm 6 mps 747 mmHg 69%
    16:00 +26°C° 0 mm 6 mps 747 mmHg 70%
    17:00 +26°C° 0 mm 6 mps 747 mmHg 72%
    18:00 +24°C° 0 mm 6 mps 747 mmHg 74%
    19:00 +23°C° 1.3 mm 5 mps 746 mmHg 79%
    20:00 +21°C° 1.3 mm 5 mps 746 mmHg 83%
    21:00 +20°C° 1.3 mm 5 mps 746 mmHg 88%
    22:00 +19°C° 0.9 mm 5 mps 746 mmHg 88%
    23:00 +19°C° 0.9 mm 5 mps 746 mmHg 88%
    Show more